Location: Unspecified
(51.5147°N, 7.4673°E)
Time: 06:28:03
(UTC+01:00)

A-11 Canister half - Pass Details

Date: 23 February 2026
Orbit: 1524 x 1683 km, 47.3° (Epoch: 14 March)

Event Time Altitude Azimuth Distance (km) Brightness Sun altitude
Rises 20:23:29 0° 281° (WNW) 4,692 13.0 -23.0°
Reaches altitude 10° 20:26:38 10° 277° (W) 3,699 12.1 -23.4°
Maximum altitude 20:35:29 52° 205° (SSW) 1,846 9.4 -24.8°
Enters shadow 20:39:44 32° 149° (SSE) 2,411 9.6 -25.4°
